KMXF

Maxwell Air Force Base

Airport
ICAO code
KMXF
Summary
ICAO Region
NAM
ICAO Territory
Location

Montgomery, Alabama,

Coordinates
32° 22' 45" N , 86° 21' 45" W
KCC
Metar
KMXF 181410Z AUTO 11003KT 10SM SCT007 OVC190 22/19 A3006 RMK AO2 SLP181

Description

Maxwell Air Force Base, officially known as Maxwell-Gunter Air Force Base, is a United States Air Force (USAF) installation located in Montgomery, Alabama,.

Climatology

Humid “subtropical” climate (Köppen climate classification Cfa) - characterized by hot, humid summers and cool winters. Significant amounts of precipitation occur in all seasons in most areas. Winter rainfall (and sometimes snowfall) is associated with large storms that the westerlies steer from west to east. Most summer rainfall occurs during thunderstorms and occasional tropical storms (hurricanes).

Runways

Designator Length Width Surface Rops
7/187 919 18 ASPH No/No
15/33 2442 46 ASP Yes/Yes

Airport map

Aerial View

SKYbrary Partners:

Safety knowledge contributed by: